RADUGA-1 3 [-]

Last updated on Jan. 18, 2020, 4:38 a.m. UTC

1 22981U 94008A   20017.46331421 -.00000298  00000-0  00000+0 0  9996
2 22981  14.9304   7.1515 0004225 347.2007  23.4904  1.00309908 95028
UTC
Height (km)
Latitude
Longitude
Inclination
Orbital Period
UTC large
Height (km)
Speed (km/s)
/
Latitude / Longitude
Inclination (degrees)
Orbital Period (minutes)
Azimuth
Elevation
Range (km)
Doppler Factor
iOS Compass Heading
iOS Angle

Next 30 passes for location: Hong Kong

Rise time Rise Azimuth (degrees) Set time Set Azimuth (degrees) Duration Max altitude (degrees)

No matching passes for this satellites